Location: Arboyeti
(42.1122°N, 44.6017°E)
Time: 05:39:16
(UTC+00:00)

ATLAS 5 CENTAUR R/B - Pass Details

Date: 19 April 2021
Orbit: 256 x 14170 km, 60.8° (Epoch: 09 May)

Event Time Altitude Azimuth Distance (km) Brightness Sun altitude
Rises 17:20:30 0° 315° (NW) 1,865 6.2 -16.5°
Reaches altitude 10° 17:22:02 10° 308° (NW) 1,064 4.6 -16.7°
Maximum altitude 17:23:54 49° 230° (SW) 423 1.3 -17.0°
Enters shadow 17:24:16 43° 195° (SSW) 486 1.4 -17.1°
